Weather in Aginskoe

Russia / Krasnoyarsk Krai     55°15′40″N   94°54′46″E
temp.,
°C
wind,
m/s
gust,
m/s
humid.,
%
clouds,
%
prec.,
mm/h
press.,
hPa
HPBL,
m
25 may, wed
wed2501:00+12e11790 0.0 102010
04:00+10ese11860 0.0 101910
07:00+13ese1172100 0.0 1019169
10:00+19ene2351100 0.0 1016572
13:00+23ene1136100 0.0 10141052
16:00+24w1135100 0.0 1012722
19:00+21wsw2349100 0.0 101139
22:00+16wsw2257100 0.0 101211
26 may, thu
thu2601:00+14w2263100 0.0 101310
04:00+12w116896 0.0 101310
07:00+15n24660 0.0 1014417
10:00+18nnw335863 0.0 10141224
13:00+20nnw344565 0.0 10131934
16:00+22nnw443616 0.0 10122422
19:00+18ne584780 0.0 1012402
22:00+14ene115017 0.0 101311
27 may, fri
fri2701:00+10ese11658 0.0 101311
04:00+9nne0074100 0.0 101210
07:00+12ne116716 0.0 1012231
10:00+17nne344981 0.0 10111379
13:00+19n453680 0.0 10102709
16:00+16ne664930 0.1 10111581
19:00+13ene696114 0.6 10121172
22:00+9ne117859 0.1 101415
28 may, sat
sat2801:00+7ne11836 0.1 101511
04:00+6e00855 0.0 101610
07:00+9ne11735 0.0 1018274
10:00+14ene45451 0.0 10171396
13:00+17ne33310 0.0 10151966
16:00+18nne33285 0.0 10142014
19:00+16nne464315 0.0 1013241
22:00+10ne2250100 0.0 101419
29 may, sun
sun2901:00+7ene00572 0.0 101410
04:00+5s116590 0.0 101410
07:00+9e0057100 0.0 1014147
10:00+14ene2341100 0.0 1012652
13:00+19nne113193 0.0 10111414
16:00+19n2230100 0.0 10101491
19:00+17n2347100 0.0 101057
22:00+13se114898 0.0 101010